| time (UTC) | temp C | wind direction | speed KPH | gust KPH | rain 1hr cm | rain 24hr cm | rain mn cm | humidity % | barometer mb |
| 20260508105136 | 11 | 291 | 4.8 | 8.0 | 0.00 | 0.84 | 0.58 | 88 | 1016.8 |
| 20260508104631 | 11 | 321 | 4.8 | 9.7 | 0.00 | 0.84 | 0.58 | 88 | 1016.8 |
| 20260508104607 | 11 | 321 | 4.8 | 9.7 | 0.00 | 0.84 | 0.58 | 88 | 1016.9 |
| 20260508104122 | 11 | 319 | 4.8 | 8.0 | 0.00 | 0.84 | 0.58 | 89 | 1016.8 |
| 20260508103044 | 11 | 304 | 1.6 | 9.7 | 0.00 | 0.84 | 0.58 | 88 | 1017.0 |
| 20260508102544 | 11 | 334 | 3.2 | 8.0 | 0.00 | 0.84 | 0.58 | 88 | 1016.8 |
| 20260508102032 | 11 | 319 | 3.2 | 11.3 | 0.00 | 0.84 | 0.58 | 87 | 1016.8 |
| 20260508101558 | 11 | 331 | 3.2 | 11.3 | 0.00 | 0.84 | 0.58 | 86 | 1016.9 |
| 20260508101011 | 12 | 306 | 3.2 | 6.4 | 0.00 | 0.84 | 0.58 | 87 | 1016.9 |
| 20260508100455 | 12 | 252 | 1.6 | 6.4 | 0.00 | 0.84 | 0.58 | 88 | 1016.8 |
| 20260508100022 | 12 | 248 | 3.2 | 8.0 | 0.00 | 0.84 | 0.58 | 89 | 1016.9 |
| 20260508095942 | 12 | 248 | 3.2 | 8.0 | 0.00 | 0.84 | 0.58 | 89 | 1016.8 |
| 20260508095432 | 12 | 311 | 1.6 | 8.0 | 0.00 | 0.84 | 0.58 | 89 | 1016.8 |
| 20260508094920 | 11 | 313 | 1.6 | 8.0 | 0.00 | 0.84 | 0.58 | 89 | 1016.8 |
| 20260508094652 | 11 | 313 | 1.6 | 8.0 | 0.00 | 0.84 | 0.58 | 89 | 1016.9 |
| 20260508093902 | 11 | 325 | 4.8 | 12.9 | 0.00 | 0.84 | 0.58 | 89 | 1016.8 |
| 20260508093401 | 11 | 342 | 3.2 | 8.0 | 0.00 | 0.84 | 0.58 | 89 | 1016.9 |
| 20260508093037 | 11 | 315 | 4.8 | 8.0 | 0.00 | 0.84 | 0.58 | 90 | 1016.9 |
| 20260508092849 | 11 | 340 | 3.2 | 8.0 | 0.00 | 0.84 | 0.58 | 90 | 1016.8 |
| 20260508092342 | 11 | 341 | 4.8 | 9.7 | 0.00 | 0.84 | 0.58 | 90 | 1016.8 |
| 20260508091600 | 11 | 317 | 3.2 | 9.7 | 0.00 | 0.84 | 0.58 | 90 | 1016.9 |
| 20260508091319 | 11 | 328 | 3.2 | 9.7 | 0.00 | 0.84 | 0.58 | 90 | 1016.8 |
| 20260508090308 | 11 | 305 | 3.2 | 9.7 | 0.00 | 0.84 | 0.58 | 91 | 1016.7 |
| 20260508090039 | 11 | 304 | 1.6 | 9.7 | 0.00 | 0.84 | 0.58 | 91 | 1016.8 |
| 20260508085243 | 11 | 300 | 3.2 | 8.0 | 0.00 | 0.84 | 0.58 | 92 | 1016.8 |
| 20260508084731 | 11 | 355 | 3.2 | 8.0 | 0.00 | 0.84 | 0.58 | 92 | 1016.8 |
| 20260508084501 | 11 | 311 | 3.2 | 6.4 | 0.00 | 0.84 | 0.58 | 92 | 1016.8 |
| 20260508084220 | 11 | 302 | 3.2 | 9.7 | 0.00 | 0.84 | 0.58 | 92 | 1016.6 |
| 20260508083706 | 11 | 311 | 3.2 | 14.5 | 0.00 | 0.84 | 0.58 | 92 | 1016.6 |
| 20260508083027 | 11 | 306 | 3.2 | 8.0 | 0.00 | 0.84 | 0.58 | 93 | 1016.6 |
| 20260508082640 | 11 | 320 | 4.8 | 8.0 | 0.00 | 0.84 | 0.58 | 93 | 1016.5 |
| 20260508082125 | 11 | 355 | 3.2 | 8.0 | 0.00 | 0.84 | 0.58 | 93 | 1016.6 |
| 20260508081610 | 11 | 317 | 3.2 | 9.7 | 0.00 | 0.84 | 0.58 | 94 | 1016.5 |
| 20260508081546 | 10 | 317 | 3.2 | 8.0 | 0.00 | 0.84 | 0.58 | 94 | 1016.5 |
| 20260508081056 | 11 | 327 | 3.2 | 9.7 | 0.00 | 0.84 | 0.58 | 95 | 1016.5 |
| 20260508080027 | 11 | 355 | 4.8 | 12.9 | 0.00 | 0.84 | 0.58 | 96 | 1016.4 |
| 20260508080001 | 10 | 355 | 4.8 | 12.9 | 0.00 | 0.84 | 0.58 | 96 | 1016.4 |
| 20260508075513 | 11 | 313 | 3.2 | 8.0 | 0.00 | 0.84 | 0.58 | 96 | 1016.3 |
| 20260508075002 | 11 | 314 | 3.2 | 8.0 | 0.00 | 0.84 | 0.58 | 97 | 1016.3 |
| 20260508074628 | 10 | 313 | 0.0 | 8.0 | 0.00 | 0.84 | 0.58 | 96 | 1016.3 |
| 20260508073930 | 10 | 287 | 1.6 | 6.4 | 0.00 | 0.84 | 0.58 | 97 | 1016.3 |
| 20260508073414 | 10 | 261 | 1.6 | 6.4 | 0.00 | 0.84 | 0.58 | 97 | 1016.3 |
| 20260508073042 | 10 | 255 | 0.0 | 6.4 | 0.00 | 0.84 | 0.58 | 97 | 1016.3 |
| 20260508072859 | 10 | 259 | 3.2 | 8.0 | 0.00 | 0.84 | 0.58 | 97 | 1016.3 |
| 20260508072343 | 10 | 355 | 1.6 | 8.0 | 0.00 | 0.84 | 0.58 | 97 | 1016.2 |
| 20260508071832 | 10 | 350 | 1.6 | 4.8 | 0.00 | 0.84 | 0.58 | 97 | 1016.1 |
| 20260508071317 | 10 | 350 | 1.6 | 4.8 | 0.00 | 0.84 | 0.58 | 97 | 1016.2 |
| 20260508070804 | 10 | 332 | 1.6 | 9.7 | 0.00 | 0.84 | 0.58 | 97 | 1016.2 |
| 20260508070247 | 10 | 305 | 1.6 | 9.7 | 0.00 | 0.84 | 0.58 | 97 | 1016.1 |
| 20260508070017 | 9 | 304 | 0.0 | 8.0 | 0.00 | 0.84 | 0.58 | 97 | 1016.2 |
| 20260508065734 | 10 | 307 | 3.2 | 9.7 | 0.00 | 0.84 | 0.58 | 97 | 1016.1 |
| 20260508065220 | 10 | 322 | 4.8 | 12.9 | 0.00 | 0.84 | 0.58 | 97 | 1016.1 |
| 20260508064705 | 10 | 317 | 3.2 | 12.9 | 0.00 | 0.84 | 0.58 | 97 | 1016.0 |
| 20260508064541 | 9 | 309 | 3.2 | 12.9 | 0.00 | 0.84 | 0.58 | 97 | 1015.9 |
| 20260508064153 | 10 | 309 | 3.2 | 8.0 | 0.00 | 0.84 | 0.58 | 97 | 1015.9 |
| 20260508063656 | 10 | 340 | 3.2 | 8.0 | 0.00 | 0.84 | 0.58 | 97 | 1015.8 |
| 20260508063130 | 10 | 301 | 3.2 | 9.7 | 0.00 | 0.84 | 0.58 | 97 | 1015.8 |
| 20260508063006 | 10 | 307 | 3.2 | 9.7 | 0.00 | 0.84 | 0.58 | 97 | 1015.7 |
| 20260508062614 | 10 | 313 | 3.2 | 11.3 | 0.03 | 0.84 | 0.58 | 97 | 1015.7 |
| 20260508061606 | 10 | 316 | 4.8 | 12.9 | 0.05 | 0.84 | 0.58 | 97 | 1015.6 |
| 20260508061539 | 10 | 310 | 4.8 | 12.9 | 0.05 | 0.84 | 0.58 | 97 | 1015.6 |
| 20260508061050 | 10 | 312 | 4.8 | 12.9 | 0.05 | 0.84 | 0.58 | 97 | 1015.5 |
| 20260508060537 | 10 | 316 | 3.2 | 8.0 | 0.05 | 0.84 | 0.58 | 97 | 1015.5 |
| 20260508060059 | 9 | 328 | 3.2 | 8.0 | 0.05 | 0.84 | 0.58 | 97 | 1015.4 |
| 20260508060022 | 10 | 330 | 1.6 | 8.0 | 0.05 | 0.84 | 0.58 | 97 | 1015.5 |
| 20260508055507 | 10 | 302 | 1.6 | 11.3 | 0.05 | 0.84 | 0.58 | 97 | 1015.4 |
| 20260508054953 | 10 | 312 | 3.2 | 11.3 | 0.05 | 0.84 | 0.58 | 97 | 1015.4 |
| 20260508054521 | 9 | 311 | 3.2 | 8.0 | 0.05 | 0.84 | 0.58 | 97 | 1015.3 |
| 20260508054444 | 9 | 302 | 3.2 | 8.0 | 0.05 | 0.84 | 0.58 | 97 | 1015.4 |
| 20260508053048 | 9 | 310 | 1.6 | 6.4 | 0.10 | 0.84 | 0.58 | 97 | 1015.2 |
| 20260508052903 | 9 | 311 | 1.6 | 6.4 | 0.10 | 0.81 | 0.58 | 97 | 1015.2 |
| 20260508051840 | 9 | 5 | 3.2 | 6.4 | 0.15 | 0.79 | 0.53 | 97 | 1015.1 |
| 20260508051507 | 9 | 340 | 3.2 | 6.4 | 0.15 | 0.79 | 0.53 | 97 | 1015.0 |
| 20260508051326 | 9 | 335 | 3.2 | 6.4 | 0.15 | 0.79 | 0.53 | 97 | 1015.1 |
| 20260508050812 | 9 | 340 | 1.6 | 6.4 | 0.18 | 0.79 | 0.53 | 97 | 1015.0 |
| 20260508050134 | 9 | 51 | 0.0 | 6.4 | 0.18 | 0.79 | 0.53 | 97 | 1015.0 |
| 20260508045756 | 9 | 51 | 1.6 | 6.4 | 0.18 | 0.79 | 0.53 | 97 | 1015.1 |
| 20260508045247 | 9 | 51 | 0.0 | 6.4 | 0.18 | 0.79 | 0.53 | 97 | 1015.1 |
| 20260508044737 | 9 | 51 | 1.6 | 6.4 | 0.18 | 0.79 | 0.53 | 97 | 1015.3 |
| 20260508044515 | 9 | 51 | 0.0 | 6.4 | 0.18 | 0.79 | 0.53 | 97 | 1015.2 |
| 20260508044233 | 9 | 51 | 1.6 | 6.4 | 0.15 | 0.79 | 0.51 | 97 | 1015.2 |
| 20260508043732 | 9 | 51 | 1.6 | 6.4 | 0.15 | 0.79 | 0.51 | 97 | 1015.2 |
| 20260508043233 | 9 | 5 | 0.0 | 3.2 | 0.13 | 0.74 | 0.51 | 97 | 1015.2 |
| 20260508043002 | 9 | 5 | 0.0 | 4.8 | 0.13 | 0.71 | 0.48 | 97 | 1015.2 |
| 20260508042213 | 9 | 340 | 1.6 | 6.4 | 0.05 | 0.69 | 0.43 | 97 | 1015.2 |
| 20260508041706 | 9 | 319 | 1.6 | 6.4 | 0.03 | 0.64 | 0.41 | 97 | 1015.3 |
| 20260508041643 | 9 | 319 | 0.0 | 6.4 | 0.05 | 0.66 | 0.41 | 97 | 1015.3 |
| 20260508040654 | 9 | 250 | 1.6 | 11.3 | 0.00 | 0.61 | 0.36 | 97 | 1015.3 |
| 20260508040121 | 9 | 250 | 0.0 | 9.7 | 0.00 | 0.61 | 0.36 | 97 | 1015.2 |
| 20260508035640 | 9 | 263 | 1.6 | 11.3 | 0.00 | 0.61 | 0.36 | 97 | 1015.0 |
| 20260508035138 | 9 | 308 | 3.2 | 11.3 | 0.00 | 0.61 | 0.36 | 97 | 1015.0 |
| 20260508034634 | 9 | 311 | 1.6 | 8.0 | 0.00 | 0.61 | 0.36 | 97 | 1014.9 |
| 20260508034506 | 9 | 307 | 1.6 | 8.0 | 0.00 | 0.61 | 0.36 | 97 | 1014.8 |
| 20260508033620 | 9 | 334 | 3.2 | 12.9 | 0.00 | 0.61 | 0.36 | 97 | 1014.7 |
| 20260508033111 | 10 | 286 | 3.2 | 12.9 | 0.00 | 0.61 | 0.36 | 97 | 1014.7 |
| 20260508033045 | 9 | 286 | 1.6 | 12.9 | 0.00 | 0.61 | 0.36 | 97 | 1014.6 |
| 20260508032056 | 10 | 319 | 3.2 | 9.7 | 0.00 | 0.61 | 0.36 | 97 | 1014.6 |
| 20260508031533 | 9 | 351 | 3.2 | 8.0 | 0.00 | 0.61 | 0.36 | 97 | 1014.6 |
| 20260508031052 | 10 | 302 | 3.2 | 16.1 | 0.00 | 0.61 | 0.36 | 97 | 1014.7 |
| 20260508030546 | 10 | 318 | 4.8 | 16.1 | 0.00 | 0.61 | 0.36 | 97 | 1014.6 |
| 20260508030038 | 10 | 313 | 4.8 | 17.7 | 0.00 | 0.61 | 0.36 | 97 | 1014.5 |
| 20260508030012 | 10 | 313 | 3.2 | 17.7 | 0.00 | 0.61 | 0.36 | 97 | 1014.5 |
| 20260508025525 | 10 | 302 | 6.4 | 17.7 | 0.00 | 0.61 | 0.36 | 97 | 1014.6 |
| 20260508025019 | 10 | 265 | 6.4 | 17.7 | 0.00 | 0.61 | 0.36 | 97 | 1014.5 |
| 20260508024547 | 10 | 308 | 4.8 | 17.7 | 0.00 | 0.61 | 0.36 | 97 | 1014.4 |
| 20260508024507 | 10 | 330 | 6.4 | 17.7 | 0.00 | 0.61 | 0.36 | 97 | 1014.5 |
| 20260508023953 | 10 | 309 | 4.8 | 17.7 | 0.00 | 0.61 | 0.36 | 97 | 1014.4 |
| 20260508023440 | 10 | 304 | 4.8 | 17.7 | 0.00 | 0.61 | 0.36 | 97 | 1014.3 |
| 20260508023006 | 10 | 298 | 6.4 | 17.7 | 0.00 | 0.61 | 0.36 | 97 | 1014.2 |
| 20260508022926 | 10 | 336 | 3.2 | 17.7 | 0.00 | 0.61 | 0.36 | 97 | 1014.2 |
| 20260508022415 | 10 | 302 | 3.2 | 16.1 | 0.00 | 0.61 | 0.36 | 97 | 1014.2 |
| 20260508021857 | 10 | 309 | 3.2 | 16.1 | 0.00 | 0.61 | 0.36 | 97 | 1014.2 |
| 20260508021521 | 10 | 316 | 1.6 | 14.5 | 0.00 | 0.61 | 0.36 | 97 | 1014.0 |
| 20260508021344 | 10 | 317 | 4.8 | 14.5 | 0.00 | 0.61 | 0.36 | 96 | 1014.1 |
| 20260508020832 | 10 | 284 | 3.2 | 14.5 | 0.00 | 0.61 | 0.36 | 97 | 1014.1 |
| 20260508020057 | 10 | 328 | 1.6 | 12.9 | 0.03 | 0.61 | 0.36 | 97 | 1013.9 |
| 20260508015811 | 10 | 319 | 3.2 | 14.5 | 0.03 | 0.61 | 0.36 | 97 | 1014.1 |
| 20260508015300 | 10 | 11 | 3.2 | 14.5 | 0.03 | 0.61 | 0.36 | 97 | 1014.0 |
| 20260508014746 | 10 | 355 | 1.6 | 6.4 | 0.03 | 0.61 | 0.36 | 97 | 1014.0 |
| 20260508014518 | 10 | 296 | 0.0 | 6.4 | 0.03 | 0.61 | 0.36 | 96 | 1013.8 |
| 20260508013721 | 10 | 337 | 1.6 | 6.4 | 0.03 | 0.61 | 0.36 | 96 | 1013.9 |
| 20260508013212 | 10 | 283 | 1.6 | 6.4 | 0.03 | 0.61 | 0.36 | 96 | 1013.9 |
| 20260508013053 | 10 | 282 | 0.0 | 6.4 | 0.03 | 0.61 | 0.36 | 97 | 1013.8 |
| 20260508012146 | 10 | 327 | 1.6 | 6.4 | 0.03 | 0.61 | 0.36 | 97 | 1014.0 |
| 20260508011633 | 10 | 342 | 1.6 | 11.3 | 0.05 | 0.61 | 0.36 | 97 | 1014.0 |
| 20260508011504 | 10 | 342 | 0.0 | 9.7 | 0.05 | 0.61 | 0.36 | 97 | 1013.8 |
| 20260508011121 | 10 | 299 | 3.2 | 11.3 | 0.05 | 0.61 | 0.36 | 96 | 1014.0 |
| 20260508010605 | 10 | 331 | 3.2 | 8.0 | 0.10 | 0.61 | 0.36 | 96 | 1013.9 |
| 20260508010104 | 10 | 315 | 3.2 | 12.9 | 0.10 | 0.61 | 0.33 | 96 | 1014.0 |
| 20260508010040 | 10 | 315 | 1.6 | 12.9 | 0.10 | 0.61 | 0.33 | 96 | 1013.8 |
| 20260508004544 | 10 | 355 | 3.2 | 12.9 | 0.33 | 0.61 | 0.33 | 96 | 1013.9 |
| 20260508004527 | 10 | 355 | 1.6 | 12.9 | 0.30 | 0.61 | 0.33 | 96 | 1013.8 |
| 20260508004035 | 10 | 319 | 3.2 | 9.7 | 0.33 | 0.61 | 0.33 | 96 | 1013.9 |
| 20260508003521 | 10 | 323 | 3.2 | 8.0 | 0.33 | 0.61 | 0.33 | 96 | 1014.0 |
| 20260508003041 | 10 | 313 | 1.6 | 9.7 | 0.33 | 0.61 | 0.33 | 96 | 1013.9 |
| 20260508003017 | 10 | 312 | 3.2 | 9.7 | 0.33 | 0.61 | 0.33 | 96 | 1014.1 |
| 20260508001934 | 11 | 292 | 3.2 | 9.7 | 0.33 | 0.58 | 0.33 | 96 | 1014.2 |
| 20260508001626 | 10 | 291 | 1.6 | 9.7 | 0.33 | 0.58 | 0.33 | 96 | 1014.0 |
| 20260508001422 | 11 | 321 | 3.2 | 9.7 | 0.33 | 0.58 | 0.33 | 96 | 1014.1 |
| 20260508000905 | 11 | 302 | 1.6 | 8.0 | 0.28 | 0.53 | 0.28 | 96 | 1014.1 |
| 20260508000404 | 11 | 301 | 0.0 | 6.4 | 0.25 | 0.51 | 0.25 | 96 | 1014.1 |
| 20260508000028 | 11 | 242 | 0.0 | 1.6 | 0.23 | 0.51 | 0.23 | 96 | 1013.9 |
| 20260507235849 | 11 | 242 | 0.0 | 1.6 | 0.23 | 0.48 | 0.23 | 96 | 1014.0 |
| 20260507235335 | 11 | 242 | 0.0 | 8.0 | 0.13 | 0.38 | 0.13 | 96 | 1014.1 |
| 20260507234819 | 11 | 242 | 3.2 | 9.7 | 0.05 | 0.30 | 0.05 | 96 | 1014.2 |
| 20260507234547 | 11 | 242 | 0.0 | 8.0 | 0.05 | 0.30 | 0.05 | 96 | 1014.0 |
| 20260507233750 | 11 | 302 | 3.2 | 11.3 | 0.03 | 0.28 | 0.03 | 96 | 1014.1 |
| 20260507233237 | 11 | 309 | 3.2 | 14.5 | 0.00 | 0.25 | 0.00 | 96 | 1014.1 |
| 20260507233013 | 11 | 309 | 1.6 | 14.5 | 0.00 | 0.25 | 0.00 | 96 | 1013.9 |
| 20260507232722 | 11 | 319 | 1.6 | 11.3 | 0.00 | 0.25 | 0.00 | 96 | 1014.1 |
| 20260507232206 | 11 | 336 | 1.6 | 9.7 | 0.00 | 0.25 | 0.00 | 96 | 1014.1 |
| 20260507231653 | 11 | 281 | 1.6 | 9.7 | 0.00 | 0.25 | 0.00 | 96 | 1014.1 |
| 20260507231533 | 11 | 281 | 1.6 | 8.0 | 0.00 | 0.25 | 0.00 | 96 | 1014.0 |
| 20260507231137 | 11 | 298 | 0.0 | 6.4 | 0.00 | 0.25 | 0.00 | 96 | 1014.2 |
| 20260507230044 | 11 | 315 | 0.0 | 9.7 | 0.00 | 0.25 | 0.00 | 96 | 1013.9 |
| 20260507225550 | 11 | 317 | 1.6 | 9.7 | 0.00 | 0.25 | 0.00 | 96 | 1014.0 |
| 20260507225034 | 11 | 309 | 1.6 | 11.3 | 0.00 | 0.25 | 0.00 | 96 | 1014.0 |
| 20260507224557 | 11 | 321 | 1.6 | 9.7 | 0.00 | 0.25 | 0.00 | 96 | 1013.8 |
| 20260507224514 | 11 | 321 | 1.6 | 11.3 | 0.00 | 0.25 | 0.00 | 96 | 1014.0 |
| 20260507223958 | 11 | 301 | 1.6 | 8.0 | 0.00 | 0.25 | 0.00 | 96 | 1014.1 |
| 20260507223444 | 12 | 297 | 0.0 | 8.0 | 0.00 | 0.25 | 0.00 | 96 | 1014.1 |
| 20260507223009 | 11 | 300 | 0.0 | 6.4 | 0.00 | 0.25 | 0.00 | 96 | 1013.8 |
| 20260507222928 | 12 | 300 | 1.6 | 6.4 | 0.00 | 0.25 | 0.00 | 96 | 1014.0 |
| 20260507222416 | 12 | 300 | 1.6 | 6.4 | 0.00 | 0.25 | 0.00 | 96 | 1014.0 |
| 20260507221901 | 12 | 317 | 0.0 | 6.4 | 0.00 | 0.25 | 0.00 | 96 | 1013.9 |
| 20260507221635 | 12 | 304 | 0.0 | 4.8 | 0.00 | 0.25 | 0.00 | 96 | 1013.7 |
| 20260507221350 | 12 | 307 | 0.0 | 4.8 | 0.03 | 0.25 | 0.00 | 96 | 1014.0 |
| 20260507220850 | 12 | 302 | 0.0 | 3.2 | 0.03 | 0.25 | 0.00 | 96 | 1014.0 |
| 20260507220337 | 12 | 316 | 0.0 | 4.8 | 0.03 | 0.25 | 0.00 | 96 | 1014.0 |
| 20260507220107 | 12 | 316 | 0.0 | 6.4 | 0.03 | 0.25 | 0.00 | 96 | 1013.7 |
| 20260507215819 | 12 | 317 | 0.0 | 6.4 | 0.03 | 0.25 | 0.25 | 96 | 1014.0 |
| 20260507214818 | 12 | 315 | 1.6 | 8.0 | 0.03 | 0.25 | 0.25 | 96 | 1013.7 |
| 20260507214537 | 12 | 300 | 0.0 | 6.4 | 0.03 | 0.25 | 0.25 | 96 | 1013.5 |
| 20260507214248 | 12 | 323 | 1.6 | 6.4 | 0.03 | 0.25 | 0.25 | 96 | 1013.6 |
| 20260507213002 | 12 | 304 | 4.8 | 12.9 | 0.03 | 0.25 | 0.25 | 96 | 1013.2 |
| 20260507212720 | 12 | 340 | 3.2 | 14.5 | 0.03 | 0.25 | 0.25 | 96 | 1013.4 |
| 20260507212208 | 12 | 309 | 3.2 | 14.5 | 0.03 | 0.25 | 0.25 | 96 | 1013.4 |
| 20260507211654 | 12 | 327 | 3.2 | 14.5 | 0.03 | 0.25 | 0.25 | 96 | 1013.4 |
| 20260507211536 | 12 | 329 | 3.2 | 14.5 | 0.03 | 0.25 | 0.25 | 95 | 1013.1 |
| 20260507211158 | 12 | 309 | 4.8 | 12.9 | 0.00 | 0.23 | 0.23 | 95 | 1013.3 |
| 20260507210639 | 12 | 327 | 4.8 | 16.1 | 0.00 | 0.23 | 0.23 | 95 | 1013.1 |
| 20260507210125 | 12 | 340 | 3.2 | 16.1 | 0.00 | 0.23 | 0.23 | 96 | 1013.0 |
| 20260507205059 | 12 | 308 | 1.6 | 6.4 | 0.00 | 0.23 | 0.23 | 95 | 1013.1 |
| 20260507204544 | 12 | 306 | 0.0 | 4.8 | 0.00 | 0.23 | 0.23 | 95 | 1013.0 |
| 20260507204519 | 12 | 306 | 0.0 | 4.8 | 0.00 | 0.23 | 0.23 | 95 | 1012.8 |
| 20260507204030 | 12 | 240 | 1.6 | 4.8 | 0.00 | 0.23 | 0.23 | 95 | 1013.0 |
| 20260507203039 | 12 | 242 | 1.6 | 4.8 | 0.00 | 0.23 | 0.23 | 95 | 1012.8 |
| 20260507203001 | 12 | 301 | 0.0 | 4.8 | 0.00 | 0.23 | 0.23 | 95 | 1013.1 |
| 20260507202445 | 12 | 342 | 0.0 | 4.8 | 0.00 | 0.23 | 0.23 | 95 | 1013.0 |
| 20260507201931 | 12 | 343 | 0.0 | 8.0 | 0.00 | 0.23 | 0.23 | 95 | 1012.9 |
| 20260507201600 | 12 | 305 | 0.0 | 8.0 | 0.00 | 0.23 | 0.23 | 95 | 1012.7 |
| 20260507201415 | 13 | 305 | 0.0 | 8.0 | 0.00 | 0.23 | 0.23 | 94 | 1012.9 |
| 20260507200901 | 13 | 302 | 0.0 | 4.8 | 0.00 | 0.23 | 0.23 | 95 | 1013.1 |
| 20260507200346 | 13 | 254 | 1.6 | 6.4 | 0.00 | 0.23 | 0.23 | 94 | 1013.1 |
| 20260507200016 | 12 | 254 | 0.0 | 11.3 | 0.00 | 0.23 | 0.23 | 94 | 1013.0 |
| 20260507195832 | 13 | 247 | 4.8 | 17.7 | 0.00 | 0.23 | 0.23 | 94 | 1013.2 |
| 20260507195320 | 13 | 251 | 6.4 | 17.7 | 0.00 | 0.23 | 0.23 | 94 | 1013.1 |
| 20260507194807 | 13 | 245 | 1.6 | 12.9 | 0.03 | 0.23 | 0.23 | 94 | 1013.0 |
| 20260507194535 | 13 | 250 | 1.6 | 8.0 | 0.03 | 0.23 | 0.23 | 93 | 1012.7 |
| 20260507194251 | 13 | 249 | 0.0 | 4.8 | 0.05 | 0.23 | 0.23 | 94 | 1012.9 |
| 20260507193738 | 13 | 346 | 0.0 | 3.2 | 0.08 | 0.23 | 0.23 | 93 | 1012.8 |
| 20260507193228 | 13 | 355 | 0.0 | 3.2 | 0.13 | 0.23 | 0.23 | 93 | 1012.6 |
| 20260507193001 | 13 | 355 | 0.0 | 4.8 | 0.18 | 0.23 | 0.23 | 93 | 1012.3 |
| 20260507192720 | 13 | 355 | 1.6 | 6.4 | 0.23 | 0.23 | 0.23 | 93 | 1012.5 |
| 20260507192213 | 13 | 355 | 0.0 | 6.4 | 0.23 | 0.23 | 0.23 | 92 | 1012.5 |
| 20260507191702 | 13 | 304 | 0.0 | 8.0 | 0.23 | 0.23 | 0.23 | 92 | 1012.4 |
| 20260507191638 | 13 | 308 | 0.0 | 3.2 | 0.23 | 0.23 | 0.23 | 92 | 1012.2 |
| 20260507191153 | 13 | 304 | 1.6 | 8.0 | 0.23 | 0.23 | 0.23 | 92 | 1012.2 |
| 20260507190650 | 13 | 316 | 1.6 | 8.0 | 0.23 | 0.23 | 0.23 | 91 | 1012.1 |
| 20260507190150 | 13 | 329 | 1.6 | 6.4 | 0.23 | 0.23 | 0.23 | 91 | 1012.2 |
| 20260507190025 | 13 | 337 | 1.6 | 6.4 | 0.23 | 0.23 | 0.23 | 90 | 1012.0 |
| 20260507185644 | 14 | 309 | 0.0 | 4.8 | 0.23 | 0.23 | 0.23 | 90 | 1012.2 |
| 20260507185137 | 14 | 307 | 1.6 | 6.4 | 0.23 | 0.23 | 0.23 | 89 | 1012.1 |
| 20260507184631 | 14 | 11 | 1.6 | 17.7 | 0.20 | 0.20 | 0.23 | 87 | 1012.4 |
| 20260507184505 | 14 | 11 | 0.0 | 17.7 | 0.20 | 0.20 | 0.20 | 87 | 1012.1 |
| 20260507184119 | 15 | 298 | 1.6 | 17.7 | 0.18 | 0.18 | 0.18 | 85 | 1012.4 |
| 20260507183613 | 15 | 324 | 1.6 | 8.0 | 0.15 | 0.15 | 0.15 | 83 | 1012.3 |
| 20260507183107 | 15 | 307 | 1.6 | 8.0 | 0.05 | 0.05 | 0.08 | 81 | 1012.2 |
| 20260507183044 | 15 | 307 | 0.0 | 8.0 | 0.08 | 0.08 | 0.08 | 81 | 1011.9 |
| 20260507182554 | 16 | 307 | 1.6 | 6.4 | 0.00 | 0.00 | 0.00 | 79 | 1012.0 |
| 20260507182048 | 16 | 261 | 1.6 | 12.9 | 0.00 | 0.00 | 0.00 | 78 | 1012.0 |
| 20260507181619 | 16 | 302 | 1.6 | 12.9 | 0.00 | 0.00 | 0.00 | 79 | 1011.5 |
| 20260507181548 | 16 | 285 | 1.6 | 12.9 | 0.00 | 0.00 | 0.00 | 78 | 1011.8 |
| 20260507181048 | 16 | 313 | 4.8 | 16.1 | 0.00 | 0.00 | 0.00 | 78 | 1011.5 |
| 20260507180549 | 16 | 333 | 4.8 | 16.1 | 0.00 | 0.00 | 0.00 | 77 | 1011.3 |
| 20260507180119 | 16 | 13 | 4.8 | 16.1 | 0.00 | 0.00 | 0.00 | 74 | 1010.8 |
| 20260507180053 | 16 | 304 | 4.8 | 16.1 | 0.00 | 0.00 | 0.00 | 74 | 1011.1 |
| 20260507175537 | 16 | 5 | 4.8 | 16.1 | 0.00 | 0.00 | 0.00 | 73 | 1011.1 |
| 20260507175031 | 16 | 289 | 1.6 | 11.3 | 0.00 | 0.00 | 0.00 | 71 | 1011.0 |
| 20260507174556 | 16 | 330 | 0.0 | 17.7 | 0.00 | 0.00 | 0.00 | 71 | 1010.7 |
| 20260507174515 | 16 | 330 | 3.2 | 17.7 | 0.00 | 0.00 | 0.00 | 70 | 1010.9 |
| 20260507174004 | 16 | 301 | 4.8 | 17.7 | 0.00 | 0.00 | 0.00 | 69 | 1010.7 |
| 20260507173459 | 16 | 318 | 3.2 | 16.1 | 0.00 | 0.00 | 0.00 | 68 | 1010.6 |
| 20260507173135 | 16 | 304 | 3.2 | 12.9 | 0.00 | 0.00 | 0.00 | 68 | 1010.3 |
| 20260507172951 | 17 | 288 | 1.6 | 8.0 | 0.00 | 0.00 | 0.00 | 68 | 1010.5 |
| 20260507172448 | 17 | 316 | 1.6 | 11.3 | 0.00 | 0.00 | 0.00 | 67 | 1010.5 |
| 20260507171937 | 17 | 312 | 1.6 | 11.3 | 0.00 | 0.00 | 0.00 | 67 | 1010.4 |
| 20260507171513 | 17 | 331 | 0.0 | 8.0 | 0.00 | 0.00 | 0.00 | 67 | 1010.0 |
| 20260507170932 | 17 | 309 | 1.6 | 16.1 | 0.00 | 0.00 | 0.00 | 67 | 1010.3 |
| 20260507170410 | 17 | 291 | 1.6 | 16.1 | 0.00 | 0.00 | 0.00 | 65 | 1010.2 |
| 20260507170047 | 17 | 288 | 3.2 | 12.9 | 0.00 | 0.00 | 0.00 | 63 | 1009.8 |
| 20260507165902 | 18 | 310 | 1.6 | 12.9 | 0.00 | 0.00 | 0.00 | 62 | 1010.1 |
| 20260507165351 | 18 | 275 | 1.6 | 12.9 | 0.00 | 0.00 | 0.00 | 60 | 1010.0 |
| 20260507164837 | 18 | 246 | 1.6 | 9.7 | 0.00 | 0.00 | 0.00 | 59 | 1010.0 |
| 20260507164502 | 18 | 259 | 1.6 | 16.1 | 0.00 | 0.00 | 0.00 | 59 | 1009.6 |
| 20260507164325 | 18 | 257 | 4.8 | 20.9 | 0.00 | 0.00 | 0.00 | 60 | 1009.9 |
| 20260507163811 | 18 | 251 | 6.4 | 20.9 | 0.00 | 0.00 | 0.00 | 59 | 1009.9 |
| 20260507163259 | 19 | 243 | 8.0 | 16.1 | 0.00 | 0.00 | 0.00 | 63 | 1009.7 |
| 20260507163027 | 18 | 239 | 6.4 | 16.1 | 0.00 | 0.00 | 0.00 | 63 | 1009.2 |
| 20260507162748 | 19 | 232 | 8.0 | 16.1 | 0.00 | 0.00 | 0.00 | 62 | 1009.6 |
| 20260507162235 | 19 | 222 | 6.4 | 12.9 | 0.00 | 0.00 | 0.00 | 62 | 1009.5 |
| 20260507161720 | 19 | 222 | 4.8 | 12.9 | 0.00 | 0.00 | 0.00 | 62 | 1009.5 |
| 20260507161556 | 18 | 194 | 3.2 | 12.9 | 0.00 | 0.00 | 0.00 | 62 | 1009.2 |
| 20260507161211 | 19 | 255 | 4.8 | 12.9 | 0.00 | 0.00 | 0.00 | 61 | 1009.5 |
| 20260507160651 | 19 | 223 | 6.4 | 14.5 | 0.00 | 0.00 | 0.00 | 61 | 1009.4 |
| 20260507160130 | 19 | 275 | 8.0 | 17.7 | 0.00 | 0.00 | 0.00 | 61 | 1009.5 |
| 20260507160007 | 19 | 174 | 4.8 | 17.7 | 0.00 | 0.00 | 0.00 | 61 | 1009.1 |
| 20260507155107 | 19 | 212 | 8.0 | 17.7 | 0.00 | 0.00 | 0.00 | 61 | 1009.6 |
| 20260507154558 | 19 | 198 | 8.0 | 16.1 | 0.00 | 0.00 | 0.00 | 61 | 1009.5 |
| 20260507154532 | 19 | 198 | 4.8 | 16.1 | 0.00 | 0.00 | 0.00 | 60 | 1009.1 |
| 20260507154044 | 20 | 195 | 8.0 | 16.1 | 0.00 | 0.00 | 0.00 | 61 | 1009.5 |
| 20260507153533 | 20 | 175 | 8.0 | 22.5 | 0.00 | 0.00 | 0.00 | 60 | 1009.6 |
| 20260507153200 | 19 | 265 | 6.4 | 22.5 | 0.00 | 0.00 | 0.00 | 60 | 1009.2 |
| 20260507152007 | 20 | 180 | 8.0 | 19.3 | 0.00 | 0.00 | 0.00 | 61 | 1009.6 |
| 20260507151532 | 20 | 208 | 8.0 | 19.3 | 0.00 | 0.00 | 0.00 | 61 | 1009.1 |
| 20260507151454 | 20 | 283 | 6.4 | 19.3 | 0.00 | 0.00 | 0.00 | 61 | 1009.5 |
| 20260507150945 | 20 | 232 | 6.4 | 19.3 | 0.00 | 0.00 | 0.00 | 61 | 1009.4 |
| 20260507150430 | 20 | 202 | 6.4 | 11.3 | 0.00 | 0.00 | 0.00 | 61 | 1009.4 |
| 20260507150056 | 20 | 259 | 4.8 | 16.1 | 0.00 | 0.00 | 0.00 | 62 | 1009.0 |
| 20260507145916 | 20 | 165 | 6.4 | 16.1 | 0.00 | 0.00 | 0.00 | 61 | 1009.4 |
| 20260507145402 | 20 | 243 | 8.0 | 17.7 | 0.00 | 0.00 | 0.00 | 60 | 1009.4 |
| 20260507144851 | 20 | 223 | 8.0 | 17.7 | 0.00 | 0.00 | 0.00 | 60 | 1009.3 |
| 20260507144520 | 20 | 246 | 6.4 | 14.5 | 0.00 | 0.00 | 0.00 | 60 | 1009.0 |
| 20260507144341 | 20 | 217 | 8.0 | 16.1 | 0.00 | 0.00 | 0.00 | 60 | 1009.4 |
| 20260507143824 | 20 | 211 | 6.4 | 16.1 | 0.00 | 0.00 | 0.00 | 59 | 1009.4 |
| 20260507143314 | 20 | 203 | 8.0 | 17.7 | 0.00 | 0.00 | 0.00 | 60 | 1009.3 |
| 20260507143046 | 20 | 246 | 4.8 | 17.7 | 0.00 | 0.00 | 0.00 | 60 | 1009.0 |
| 20260507142803 | 20 | 198 | 8.0 | 17.7 | 0.00 | 0.00 | 0.00 | 60 | 1009.4 |
| 20260507142249 | 20 | 177 | 8.0 | 17.7 | 0.00 | 0.00 | 0.00 | 60 | 1009.4 |
| 20260507141610 | 20 | 219 | 11.3 | 19.3 | 0.00 | 0.00 | 0.00 | 59 | 1008.9 |
| 20260507140706 | 20 | 261 | 8.0 | 17.7 | 0.00 | 0.00 | 0.00 | 58 | 1009.4 |
| 20260507140150 | 20 | 223 | 9.7 | 17.7 | 0.00 | 0.00 | 0.00 | 57 | 1009.3 |
| 20260507140127 | 20 | 205 | 8.0 | 16.1 | 0.00 | 0.00 | 0.00 | 57 | 1008.9 |
| 20260507135130 | 21 | 196 | 9.7 | 19.3 | 0.00 | 0.00 | 0.00 | 56 | 1009.3 |
| 20260507134615 | 21 | 257 | 9.7 | 19.3 | 0.00 | 0.00 | 0.00 | 58 | 1009.3 |
| 20260507134553 | 20 | 257 | 8.0 | 19.3 | 0.00 | 0.00 | 0.00 | 59 | 1008.9 |
| 20260507134101 | 20 | 222 | 8.0 | 19.3 | 0.00 | 0.00 | 0.00 | 58 | 1009.3 |
| 20260507133544 | 20 | 152 | 6.4 | 19.3 | 0.00 | 0.00 | 0.00 | 59 | 1009.3 |
| 20260507133030 | 20 | 148 | 8.0 | 16.1 | 0.00 | 0.00 | 0.00 | 59 | 1009.4 |
| 20260507133004 | 20 | 190 | 3.2 | 14.5 | 0.00 | 0.00 | 0.00 | 59 | 1009.0 |
| 20260507132515 | 20 | 245 | 4.8 | 16.1 | 0.00 | 0.00 | 0.00 | 58 | 1009.5 |
| 20260507131954 | 20 | 241 | 3.2 | 16.1 | 0.00 | 0.00 | 0.00 | 58 | 1009.5 |
| 20260507131622 | 20 | 235 | 0.0 | 8.0 | 0.00 | 0.00 | 0.00 | 59 | 1009.0 |
| 20260507131443 | 20 | 235 | 4.8 | 11.3 | 0.00 | 0.00 | 0.00 | 59 | 1009.5 |
| 20260507130930 | 20 | 273 | 6.4 | 16.1 | 0.00 | 0.00 | 0.00 | 59 | 1009.6 |
| 20260507130417 | 20 | 211 | 6.4 | 16.1 | 0.00 | 0.00 | 0.00 | 58 | 1009.6 |
| 20260507130053 | 20 | 228 | 4.8 | 12.9 | 0.00 | 0.00 | 0.00 | 58 | 1009.1 |
| 20260507125903 | 20 | 219 | 6.4 | 16.1 | 0.00 | 0.00 | 0.00 | 57 | 1009.6 |
| 20260507125347 | 20 | 238 | 6.4 | 16.1 | 0.00 | 0.00 | 0.00 | 57 | 1009.5 |
| 20260507124559 | 20 | 227 | 3.2 | 17.7 | 0.00 | 0.00 | 0.00 | 58 | 1009.1 |
| 20260507124316 | 20 | 232 | 6.4 | 19.3 | 0.00 | 0.00 | 0.00 | 57 | 1009.6 |
| 20260507123802 | 20 | 175 | 6.4 | 14.5 | 0.00 | 0.00 | 0.00 | 58 | 1009.6 |
| 20260507123015 | 20 | 250 | 8.0 | 17.7 | 0.00 | 0.00 | 0.00 | 59 | 1009.1 |
| 20260507122732 | 20 | 231 | 8.0 | 17.7 | 0.00 | 0.00 | 0.00 | 60 | 1009.6 |
| 20260507122216 | 20 | 242 | 8.0 | 22.5 | 0.00 | 0.00 | 0.00 | 60 | 1009.6 |
| 20260507121702 | 20 | 244 | 8.0 | 22.5 | 0.00 | 0.00 | 0.00 | 61 | 1009.6 |
| 20260507121534 | 20 | 238 | 3.2 | 22.5 | 0.00 | 0.00 | 0.00 | 61 | 1009.2 |
| 20260507121149 | 20 | 242 | 9.7 | 25.7 | 0.00 | 0.00 | 0.00 | 61 | 1009.7 |
| 20260507120650 | 20 | 254 | 6.4 | 25.7 | 0.00 | 0.00 | 0.00 | 61 | 1009.7 |
| 20260507120137 | 20 | 245 | 6.4 | 17.7 | 0.00 | 0.00 | 0.00 | 62 | 1009.6 |
| 20260507120023 | 20 | 277 | 1.6 | 16.1 | 0.00 | 0.00 | 0.00 | 62 | 1009.2 |
| 20260507115623 | 20 | 250 | 6.4 | 17.7 | 0.00 | 0.00 | 0.00 | 61 | 1009.7 |
| 20260507115109 | 20 | 253 | 4.8 | 14.5 | 0.00 | 0.00 | 0.00 | 61 | 1009.7 |
| 20260507114556 | 20 | 249 | 4.8 | 17.7 | 0.00 | 0.00 | 0.00 | 62 | 1009.6 |
| 20260507114533 | 20 | 249 | 1.6 | 17.7 | 0.00 | 0.00 | 0.00 | 63 | 1009.2 |
| 20260507114044 | 20 | 255 | 4.8 | 17.7 | 0.00 | 0.00 | 0.00 | 63 | 1009.6 |
| 20260507113541 | 20 | 302 | 3.2 | 16.1 | 0.00 | 0.00 | 0.00 | 63 | 1009.6 |
| 20260507113010 | 20 | 227 | 1.6 | 14.5 | 0.00 | 0.00 | 0.00 | 65 | 1009.1 |
| 20260507112519 | 20 | 202 | 3.2 | 12.9 | 0.00 | 0.00 | 0.00 | 66 | 1009.6 |
| 20260507112017 | 20 | 224 | 4.8 | 14.5 | 0.00 | 0.00 | 0.00 | 65 | 1009.6 |
| 20260507111550 | 20 | 242 | 1.6 | 14.5 | 0.00 | 0.00 | 0.00 | 66 | 1009.2 |
| 20260507111513 | 20 | 200 | 6.4 | 17.7 | 0.00 | 0.00 | 0.00 | 65 | 1009.6 |
| 20260507111019 | 20 | 111 | 6.4 | 17.7 | 0.00 | 0.00 | 0.00 | 66 | 1009.6 |
| 20260507110026 | 19 | 248 | 6.4 | 14.5 | 0.00 | 0.00 | 0.00 | 67 | 1009.1 |
| 20260507105948 | 20 | 215 | 9.7 | 14.5 | 0.00 | 0.00 | 0.00 | 67 | 1009.6 |
| 20260507105436 | 20 | 238 | 8.0 | 16.1 | 0.00 | 0.00 | 0.00 | 67 | 1009.5 |